Montrose, CO

11:50 PM MDT on September 21, 2017 (GMT -0600)
Montrose Regional

Weather History for KMTJ - May, 2013

Change the Weather History Date:

Monday, May 20, 2013

  Actual Average Record
Temperature  
Mean Temperature 52 °F 60 °F  
Max Temperature 66 °F 75 °F 93 °F (2005)
Min Temperature 38 °F 44 °F 33 °F (2017)
Degree Days  
Heating Degree Days 13 6  
Month to date heating degree days 184 176  
Since 1 July heating degree days 6087 6114  
Cooling Degree Days 0 1  
Month to date cooling degree days 9 2  
Year to date cooling degree days 9 2  
Growing Degree Days 2 (Base 50)    
Moisture  
Dew Point 34 °F    
Average Humidity 51    
Maximum Humidity 76    
Minimum Humidity 26    
Precipitation  
Precipitation 0.00 in 0.03 in 0.27 in (1997)
Month to date precipitation 0.57 0.85  
Year to date precipitation 2.64 4.07  
Sea Level Pressure  
Sea Level Pressure 29.95 in    
Wind  
Wind Speed 8 mph (ENE)    
Max Wind Speed 25 mph    
Max Gust Speed 33 mph    
Visibility 10 miles    
Events      
T = Trace of Precipitation, MM = Missing Value Source: NWS Daily Summary

Daily Weather History Graph

Daily Weather History Graph

Search for Another Location

Airport or City:

Trip Planner

Search our weather history database for the weather conditions in past years. The results will help you decide how hot, cold, wet, or windy it might be!

Date:

Astronomy

May. 20, 2013 Rise Set
Actual Time 5:55 AM MDT 8:20 PM MDT
Civil Twilight 5:25 AM MDT 8:51 PM MDT
Nautical Twilight 4:48 AM MDT 9:28 PM MDT
Astronomical Twilight 4:06 AM MDT 10:10 PM MDT
Moon 3:35 PM MDT (5/20) 2:48 AM MDT (5/20)
Length of Visible Light 15h 25m
Length of Day
14h 25m
Waxing Gibbous, 75% of the Moon is Illuminated
May 20
Waxing Gibbous
May 24
Full
May 31
Last Quarter
Jun 8
New
Jun 16
First Quarter

Hourly Weather History & Observations

Time (MDT) Temp. Windchill Dew Point Humidity Pressure Visibility Wind Dir Wind Speed Gust Speed Precip Events Conditions
12:53 AM 43.0 °F 39.5 °F 33.1 °F 68% 29.88 in 10.0 mi South 5.8 mph - N/A   Clear
1:53 AM 41.0 °F 37.1 °F 33.1 °F 73% 29.89 in 10.0 mi SSE 5.8 mph - N/A   Clear
2:53 AM 39.0 °F 34.0 °F 32.0 °F 76% 29.90 in 10.0 mi East 6.9 mph - N/A   Clear
3:53 AM 39.9 °F 35.8 °F 30.9 °F 70% 29.91 in 10.0 mi SE 5.8 mph - N/A   Clear
5:53 AM 39.9 °F 34.5 °F 30.0 °F 68% 29.94 in 10.0 mi SE 8.1 mph - N/A   Overcast
6:53 AM 41.0 °F 35.8 °F 30.9 °F 67% 29.96 in 10.0 mi SE 8.1 mph - N/A   Partly Cloudy
7:53 AM 44.1 °F - 33.1 °F 65% 29.97 in 10.0 mi Calm Calm - N/A   Scattered Clouds
8:53 AM 48.9 °F - 33.1 °F 54% 29.97 in 10.0 mi Calm Calm - N/A   Overcast
9:53 AM 54.0 °F - 33.1 °F 45% 29.97 in 10.0 mi Variable 4.6 mph - N/A   Mostly Cloudy
10:53 AM 57.0 °F - 34.0 °F 42% 29.95 in 10.0 mi North 6.9 mph - N/A   Clear
11:53 AM 59.0 °F - 34.0 °F 39% 29.95 in 10.0 mi NW 6.9 mph - N/A   Clear
12:53 PM 61.0 °F - 32.0 °F 34% 29.93 in 10.0 mi Variable 4.6 mph - N/A   Clear
1:53 PM 63.0 °F - 32.0 °F 31% 29.92 in 10.0 mi NW 13.8 mph 25.3 mph N/A   Scattered Clouds
2:53 PM 66.0 °F - 30.9 °F 27% 29.91 in 10.0 mi NW 20.7 mph 26.5 mph N/A   Partly Cloudy
3:53 PM 64.9 °F - 34.0 °F 32% 29.91 in 10.0 mi NW 23.0 mph 33.4 mph N/A   Partly Cloudy
4:53 PM 61.0 °F - 35.1 °F 38% 29.94 in 10.0 mi NNW 12.7 mph 27.6 mph N/A   Mostly Cloudy
5:29 PM 60.8 °F - 35.6 °F 39% 30.05 in 10.0 mi North 12.7 mph 24.2 mph N/A   Mostly Cloudy
5:53 PM 60.1 °F - 34.0 °F 38% 29.95 in 10.0 mi North 10.4 mph - N/A   Overcast
6:53 PM 62.1 °F - 33.1 °F 34% 29.94 in 10.0 mi NNE 9.2 mph - N/A   Overcast
8:53 PM 55.9 °F - 37.0 °F 49% 29.97 in 10.0 mi Calm Calm - N/A   Clear
9:53 PM 53.1 °F - 37.9 °F 57% 29.99 in 10.0 mi SE 8.1 mph - N/A   Scattered Clouds
10:53 PM 51.1 °F - 37.0 °F 59% 29.99 in 10.0 mi ESE 6.9 mph - N/A   Mostly Cloudy
11:53 PM 51.1 °F - 37.0 °F 59% 29.99 in 10.0 mi ESE 5.8 mph - N/A   Overcast